AirNav   Everest Fuels
 
 504 users online  

PN26 St Clair Hospital Heliport
Pittsburgh, Pennsylvania, USA

GOING TO PITTSBURGH?


FAA INFORMATION EFFECTIVE 16 JULY 2020

Location

FAA Identifier: PN26
Lat/Long: 40-22-42.3300N 080-03-55.3100W
40-22.705500N 080-03.921833W
40.3784250,-80.0653639
(estimated)
Elevation: 1150 ft. / 351 m (estimated)
Variation: 08W (1990)
From city: 8 miles N of PITTSBURGH, PA
Time zone: UTC -4 (UTC -5 during Standard Time)
Zip code: 15243

Heliport Operations

Heliport use: Private use, MEDICAL USE.
Activation date: 03/1994
Control tower: no
ARTCC: CLEVELAND CENTER
FSS: ALTOONA FLIGHT SERVICE STATION
Attendance: CONTINUOUS
Wind indicator: lighted
Segmented circle: no
Lights: FOR PERIMETER LGTS CALL 412-942-2300.

Heliport Communications

WX AWOS-A at 42PN (5 nm NE): PHONE 412-442-2213
WX ASOS at AGC (6 nm E): 120.55 (412-466-8968)
WX ASOS at PIT (10 nm NW): PHONE 412-472-0145
WX AWOS-3 at FWQ (15 nm SE): 118.475 (724-379-5815)
WX AWOS-3PT at AFJ (18 nm SW): 119.175 (724-228-3529)

Nearby radio navigation aids

VOR radial/distance  VOR name  Freq  Var
AGCr358/6.1ALLEGHENY VOR/DME110.0009W
HLGr080/24.1WHEELING VOR/DME112.2007W
EWCr174/27.6ELLWOOD CITY VOR/DME115.8008W

Heliport Services

Runway Information

Helipad H1

Dimensions: 65 x 65 ft. / 20 x 20 m
Surface: concrete
Runway edge lights: PERI
Latitude: 40-22.705500N
Longitude: 080-03.921833W
Elevation: 1150.0 ft.
Traffic pattern: leftleft

Heliport Ownership and Management from official FAA records

Ownership: Privately-owned
Owner: ST CLAIR MEMORIAL HOSPITAL
1000 BOWER HILL ROAD
PITTSBURGH, PA 15243
Phone (412) 942-2300
Manager: STEPHEN A. NOVICKI, DIRECTOR
1000 BOWER HILL ROAD
PITTSBURGH, PA 15243
Phone 412-942-2300
412-942-2775.

Additional Remarks

A52-H1 HAS 51 FT TREES 226 FT SSW; 23 FT POLE 49 FT S; 25 FT TREES 77 FT NW; & 21 FT POLE 43 FT N.
FOR CD CTC PITTSBURGH APCH AT 412-472-5591

Instrument Procedures

There are no published instrument procedures at PN26.

Some nearby airports with instrument procedures:

KAGC - Allegheny County Airport (6 nm E)
G05 - Finleyville Airpark (8 nm S)
KPIT - Pittsburgh International Airport (10 nm NW)
KFWQ - Rostraver Airport (15 nm SE)
KAFJ - Washington County Airport (18 nm SW)
 
Loc | Ops | Rwys | IFR | FBO | Links
Com | Nav | Svcs | Stats | Notes
Area around PN26 (St Clair Hospital Heliport)
 
Road maps at: MapQuest Bing Google
 
Aerial photo
No photo
 
Sectional chart

 
Airport distance calculator
Flying to St Clair Hospital Heliport? Find the distance to fly.

From to PN26

Sunrise and sunset
Times for 13-Aug-2020
 Local
(UTC-4)
 Zulu
(UTC)
Morning civil twilight06:0210:02
Sunrise06:3110:31
Sunset20:1900:19
Evening civil twilight20:4800:48

Current date and time
Zulu (UTC)  13-Aug-2020 06:09:38
Local (UTC-4)  13-Aug-2020 02:09:38
 
METAR
KAGC 
7nm E 
130553Z 00000KT 10SM CLR 23/15 A3007 RMK AO2 SLP174 T02330150 10272 20233 58005
KPIT 
12nm NW 
130551Z 02005KT 10SM BKN220 23/15 A3007 RMK AO2 SLP180 T02280150 10267 20228 58005
KP53 
15nm SE 
130556Z AUTO 00000KT 20/17 A3011 RMK AO1 SLP195 T02000167 10217 20200 53004
KAFJ 
18nm SW 
130556Z AUTO 00000KT 10SM CLR 21/19 A3010 RMK AO2 SLP181 T02110189 10272 20211 58006
TAF
KAGC 
7nm E 
130520Z 1306/1406 03004KT P6SM BKN250 FM131800 08005KT P6SM SCT090
KPIT 
12nm NW 
130520Z 1306/1412 03005KT P6SM BKN250 FM131800 08005KT P6SM SCT090 FM140600 07003KT P6SM SCT150
NOTAMs
Click for the latest NOTAMs
NOTAMs are issued by the DoD/FAA and will open in a separate window not controlled by AirNav.

 

 
 

Would you like to see your business listed on this page?

 If your business provides an interesting product or service to pilots, flight crews, aircraft, or users of the St Clair Hospital Heliport, you should consider listing it here.  To start the listing process, click on the button below
 
Add a business
 

Other Pages about St Clair Hospital Heliport

Update a link
 
Copyright © AirNav, LLC. All rights reserved. Privacy Policy  Contact